Location: Namasale
(1.5000°N, 32.6167°E)
Time: 20:09:07
(UTC+00:00)

Vanguard 1 Rocket - Pass Details

Date: 21 April 2021
Orbit: 652 x 4224 km, 34.3° (Epoch: 09 May)

Event Time Altitude Azimuth Distance (km) Brightness Sun altitude
Rises 08:50:57 0° 254° (WSW) 6,679 11.6 72.3°
Reaches altitude 10° 08:57:03 10° 264° (W) 4,979 11.1 73.5°
Maximum altitude 09:07:02 27° 316° (NW) 2,634 10.2 75.4°
Drops below altitude 10° 09:13:09 10° 13° (NNE) 2,951 10.4 76.4°
Sets 09:15:45 0° 27° (NNE) 3,602 10.7 76.8°
